Location: Byszew
(52.1813°N, 19.2693°E)
Time: 22:26:01
(UTC+00:00)

Cosmos 2322 Rocket - Pass Details

Date: 29 June 2021
Orbit: 833 x 850 km, 71.0° (Epoch: 26 July)

Event Time Altitude Azimuth Distance (km) Brightness Sun altitude
Rises 23:50:02 0° 327° (NNW) 3,424 6.0 -13.4°
Reaches altitude 10° 23:53:14 10° 345° (NNW) 2,484 5.6 -13.3°
Maximum altitude 23:57:17 20° 30° (NNE) 1,893 5.1 -13.1°
Drops below altitude 10° 00:01:19 10° 76° (ENE) 2,469 5.1 -12.9°
Sets 00:04:29 0° 94° (E) 3,398 5.5 -12.7°
